Time,TemperatureF,DewpointF,PressureIn,WindDirection,WindDirectionDegrees,WindSpeedMPH,WindSpeedGustMPH,Humidity,HourlyPrecipIn,Conditions,Clouds,dailyrainin,SoftwareType,DateUTC
2013-05-20 00:02:00,57.0,50.0,29.69,West,270,10.0,-999.0,76,-99.99,,,-99.99,,2013-05-20 05:02:00,
2013-05-20 00:12:00,57.0,50.0,29.69,WSW,250,12.0,-999.0,76,-99.99,,,-99.99,,2013-05-20 05:12:00,
2013-05-20 00:21:00,57.0,50.0,29.70,West,260,12.0,-999.0,76,-99.99,,,-99.99,,2013-05-20 05:21:00,
2013-05-20 00:32:00,57.0,50.0,29.70,West,260,10.0,-999.0,76,-99.99,,,-99.99,,2013-05-20 05:32:00,
2013-05-20 00:42:00,57.0,50.0,29.70,West,260,12.0,-999.0,76,-99.99,,,-99.99,,2013-05-20 05:42:00,
2013-05-20 00:51:00,57.0,50.0,29.68,West,260,12.0,-999.0,76,-99.99,,,-99.99,,2013-05-20 05:51:00,
2013-05-20 01:01:00,57.0,50.0,29.68,West,260,12.0,-999.0,76,-99.99,,,-99.99,,2013-05-20 06:01:00,
2013-05-20 01:11:00,57.0,50.0,29.68,West,270,14.0,-999.0,76,-99.99,,,-99.99,,2013-05-20 06:11:00,
2013-05-20 01:21:00,57.0,50.0,29.67,West,270,14.0,20.0,76,-99.99,,,-99.99,,2013-05-20 06:21:00,
2013-05-20 01:32:00,57.0,50.0,29.68,West,260,14.0,-999.0,76,-99.99,,,-99.99,,2013-05-20 06:32:00,
2013-05-20 01:41:00,57.0,50.0,29.68,West,260,13.0,-999.0,76,-99.99,,,-99.99,,2013-05-20 06:41:00,
2013-05-20 01:52:00,57.0,50.0,29.68,WSW,240,12.0,-999.0,76,-99.99,,,-99.99,,2013-05-20 06:52:00,
2013-05-20 02:01:00,57.0,50.0,29.68,WSW,240,12.0,-999.0,76,-99.99,,,-99.99,,2013-05-20 07:01:00,
2013-05-20 02:12:00,57.0,50.0,29.68,WSW,250,15.0,-999.0,76,-99.99,,,-99.99,,2013-05-20 07:12:00,
2013-05-20 02:21:00,57.0,52.0,29.68,West,260,13.0,-999.0,82,-99.99,,,-99.99,,2013-05-20 07:21:00,
2013-05-20 02:32:00,57.0,52.0,29.68,West,270,14.0,18.0,82,-99.99,,,-99.99,,2013-05-20 07:32:00,
2013-05-20 02:42:00,57.0,52.0,29.68,West,270,13.0,18.0,82,-99.99,,,-99.99,,2013-05-20 07:42:00,
2013-05-20 02:52:00,57.0,52.0,29.67,West,280,15.0,-999.0,82,-99.99,,,-99.99,,2013-05-20 07:52:00,
2013-05-20 03:01:00,57.0,52.0,29.67,West,280,15.0,-999.0,82,-99.99,,,-99.99,,2013-05-20 08:01:00,
2013-05-20 03:11:00,57.0,52.0,29.68,West,270,14.0,-999.0,82,-99.99,,,-99.99,,2013-05-20 08:11:00,
2013-05-20 03:21:00,57.0,52.0,29.68,West,280,16.0,22.0,82,-99.99,,,-99.99,,2013-05-20 08:21:00,
2013-05-20 03:31:00,59.0,54.0,29.68,WNW,290,15.0,24.0,82,-99.99,,,-99.99,,2013-05-20 08:31:00,
2013-05-20 03:41:00,59.0,54.0,29.69,West,280,15.0,24.0,82,-99.99,,,-99.99,,2013-05-20 08:41:00,
2013-05-20 03:51:00,57.0,54.0,29.68,WNW,290,14.0,-999.0,87,-99.99,,,-99.99,,2013-05-20 08:51:00,
2013-05-20 04:02:00,57.0,54.0,29.68,WNW,290,14.0,-999.0,87,-99.99,,,-99.99,,2013-05-20 09:02:00,
2013-05-20 04:12:00,57.0,54.0,29.68,West,280,12.0,-999.0,87,-99.99,,,-99.99,,2013-05-20 09:12:00,
2013-05-20 04:21:00,57.0,54.0,29.69,West,280,9.0,-999.0,87,-99.99,,,-99.99,,2013-05-20 09:21:00,
2013-05-20 04:32:00,57.0,54.0,29.70,West,280,7.0,-999.0,87,-99.99,,,-99.99,,2013-05-20 09:32:00,
2013-05-20 04:43:00,57.0,54.0,29.70,West,270,7.0,-999.0,87,-99.99,,,-99.99,,2013-05-20 09:43:00,
2013-05-20 04:52:00,55.0,54.0,29.71,West,260,8.0,-999.0,93,-99.99,,,-99.99,,2013-05-20 09:52:00,
2013-05-20 05:03:00,55.0,54.0,29.71,West,260,8.0,-999.0,93,-99.99,,,-99.99,,2013-05-20 10:03:00,
2013-05-20 05:12:00,55.0,52.0,29.71,WSW,250,6.0,-999.0,87,-99.99,,,-99.99,,2013-05-20 10:12:00,
2013-05-20 05:22:00,55.0,52.0,29.71,West,260,6.0,-999.0,87,-99.99,,,-99.99,,2013-05-20 10:22:00,
2013-05-20 05:32:00,55.0,52.0,29.71,West,260,6.0,-999.0,87,-99.99,,,-99.99,,2013-05-20 10:32:00,
2013-05-20 05:42:00,55.0,52.0,29.72,WSW,250,6.0,-999.0,87,-99.99,,,-99.99,,2013-05-20 10:42:00,
2013-05-20 05:52:00,55.0,52.0,29.72,WSW,240,8.0,-999.0,87,-99.99,,,-99.99,,2013-05-20 10:52:00,
2013-05-20 06:02:00,55.0,52.0,29.72,WSW,240,8.0,-999.0,87,-99.99,,,-99.99,,2013-05-20 11:02:00,
2013-05-20 06:12:00,55.0,52.0,29.72,SW,230,7.0,-999.0,87,-99.99,,,-99.99,,2013-05-20 11:12:00,
2013-05-20 06:21:00,55.0,52.0,29.72,WSW,240,6.0,-999.0,87,-99.99,,,-99.99,,2013-05-20 11:21:00,
2013-05-20 06:32:00,54.0,52.0,29.72,WSW,240,5.0,-999.0,93,-99.99,,,-99.99,,2013-05-20 11:32:00,
2013-05-20 06:41:00,54.0,52.0,29.72,WSW,240,5.0,-999.0,93,-99.99,,,-99.99,,2013-05-20 11:41:00,
2013-05-20 06:51:00,54.0,50.0,29.72,SW,230,5.0,-999.0,87,-99.99,,,-99.99,,2013-05-20 11:51:00,
2013-05-20 07:01:00,54.0,50.0,29.72,SW,230,5.0,-999.0,87,-99.99,,,-99.99,,2013-05-20 12:01:00,
2013-05-20 07:11:00,54.0,50.0,29.72,WSW,240,5.0,-999.0,87,-99.99,,,-99.99,,2013-05-20 12:11:00,
2013-05-20 07:21:00,54.0,52.0,29.73,WSW,240,5.0,-999.0,93,-99.99,,,-99.99,,2013-05-20 12:21:00,
2013-05-20 07:31:00,55.0,54.0,29.73,West,260,9.0,-999.0,93,-99.99,,,-99.99,,2013-05-20 12:31:00,
2013-05-20 07:41:00,57.0,54.0,29.74,WSW,250,9.0,-999.0,87,-99.99,,,-99.99,,2013-05-20 12:41:00,
2013-05-20 07:52:00,59.0,54.0,29.74,West,260,12.0,-999.0,82,-99.99,,,-99.99,,2013-05-20 12:52:00,
2013-05-20 08:01:00,59.0,54.0,29.74,West,260,12.0,-999.0,82,-99.99,,,-99.99,,2013-05-20 13:01:00,
2013-05-20 08:11:00,59.0,54.0,29.74,West,270,14.0,-999.0,82,-99.99,,,-99.99,,2013-05-20 13:11:00,
2013-05-20 08:22:00,61.0,54.0,29.74,West,270,17.0,22.0,77,-99.99,,,-99.99,,2013-05-20 13:22:00,
2013-05-20 08:31:00,61.0,54.0,29.74,West,270,18.0,23.0,77,-99.99,,,-99.99,,2013-05-20 13:31:00,
2013-05-20 08:41:00,63.0,52.0,29.74,West,270,20.0,23.0,67,-99.99,,,-99.99,,2013-05-20 13:41:00,
2013-05-20 08:52:00,63.0,52.0,29.75,West,280,22.0,30.0,67,-99.99,,,-99.99,,2013-05-20 13:52:00,
2013-05-20 09:01:00,63.0,52.0,29.75,West,280,22.0,30.0,67,-99.99,,,-99.99,,2013-05-20 14:01:00,
2013-05-20 09:11:00,64.0,50.0,29.75,West,280,20.0,27.0,59,-99.99,,,-99.99,,2013-05-20 14:11:00,
2013-05-20 09:22:00,64.0,48.0,29.75,WNW,300,21.0,30.0,55,-99.99,,,-99.99,,2013-05-20 14:22:00,
2013-05-20 09:31:00,64.0,48.0,29.74,WNW,290,20.0,25.0,55,-99.99,,,-99.99,,2013-05-20 14:31:00,
2013-05-20 09:41:00,64.0,48.0,29.74,WNW,290,20.0,28.0,55,-99.99,,,-99.99,,2013-05-20 14:41:00,
2013-05-20 09:52:00,66.0,48.0,29.74,West,280,20.0,29.0,52,-99.99,,,-99.99,,2013-05-20 14:52:00,
2013-05-20 10:01:00,66.0,48.0,29.74,West,280,20.0,29.0,52,-99.99,,,-99.99,,2013-05-20 15:01:00,
2013-05-20 10:11:00,66.0,48.0,29.74,West,280,25.0,30.0,52,-99.99,,,-99.99,,2013-05-20 15:11:00,
2013-05-20 10:21:00,68.0,48.0,29.75,West,280,18.0,29.0,49,-99.99,,,-99.99,,2013-05-20 15:21:00,
2013-05-20 10:33:00,66.0,48.0,29.75,West,270,20.0,28.0,52,-99.99,,,-99.99,,2013-05-20 15:33:00,
2013-05-20 10:42:00,68.0,46.0,29.75,West,280,18.0,27.0,45,-99.99,,,-99.99,,2013-05-20 15:42:00,
2013-05-20 10:53:00,68.0,46.0,29.75,WNW,290,20.0,24.0,45,-99.99,,,-99.99,,2013-05-20 15:53:00,
2013-05-20 11:03:00,68.0,46.0,29.75,WNW,290,20.0,24.0,45,-99.99,,,-99.99,,2013-05-20 16:03:00,
2013-05-20 11:12:00,70.0,46.0,29.75,West,270,17.0,25.0,43,-99.99,,,-99.99,,2013-05-20 16:12:00,
2013-05-20 11:22:00,72.0,46.0,29.74,West,280,17.0,24.0,40,-99.99,,,-99.99,,2013-05-20 16:22:00,
2013-05-20 11:33:00,70.0,46.0,29.74,West,260,16.0,24.0,43,-99.99,,,-99.99,,2013-05-20 16:33:00,
2013-05-20 11:42:00,72.0,46.0,29.74,West,280,18.0,28.0,40,-99.99,,,-99.99,,2013-05-20 16:42:00,
2013-05-20 11:52:00,70.0,46.0,29.73,West,280,20.0,29.0,43,-99.99,,,-99.99,,2013-05-20 16:52:00,
2013-05-20 12:02:00,70.0,46.0,29.73,West,280,20.0,29.0,43,-99.99,,,-99.99,,2013-05-20 17:02:00,
2013-05-20 12:12:00,72.0,46.0,29.73,West,270,20.0,28.0,40,-99.99,,,-99.99,,2013-05-20 17:12:00,
2013-05-20 12:22:00,70.0,46.0,29.73,West,270,23.0,33.0,43,-99.99,,,-99.99,,2013-05-20 17:22:00,
2013-05-20 12:33:00,72.0,45.0,29.73,West,270,22.0,29.0,37,-99.99,,,-99.99,,2013-05-20 17:33:00,
2013-05-20 12:45:00,72.0,45.0,29.73,West,280,24.0,32.0,37,-99.99,,,-99.99,,2013-05-20 17:45:00,
2013-05-20 12:53:00,72.0,45.0,29.73,West,280,24.0,30.0,37,-99.99,,,-99.99,,2013-05-20 17:53:00,
2013-05-20 13:02:00,72.0,45.0,29.73,West,280,24.0,30.0,37,-99.99,,,-99.99,,2013-05-20 18:02:00,
2013-05-20 13:12:00,70.0,45.0,29.73,West,270,21.0,25.0,40,-99.99,,,-99.99,,2013-05-20 18:12:00,
2013-05-20 13:23:00,72.0,45.0,29.73,West,270,24.0,36.0,37,-99.99,,,-99.99,,2013-05-20 18:23:00,
2013-05-20 13:32:00,73.0,45.0,29.72,West,280,22.0,31.0,35,-99.99,,,-99.99,,2013-05-20 18:32:00,
2013-05-20 13:41:00,73.0,43.0,29.72,West,280,28.0,35.0,33,-99.99,,,-99.99,,2013-05-20 18:41:00,
2013-05-20 13:55:00,73.0,43.0,29.72,West,280,30.0,38.0,33,-99.99,,,-99.99,,2013-05-20 18:55:00,
2013-05-20 14:04:00,73.0,43.0,29.72,West,280,30.0,38.0,33,-99.99,,,-99.99,,2013-05-20 19:04:00,
2013-05-20 14:11:00,73.0,43.0,29.72,West,270,25.0,38.0,33,-99.99,,,-99.99,,2013-05-20 19:11:00,
2013-05-20 14:21:00,75.0,45.0,29.72,West,280,24.0,36.0,33,-99.99,,,-99.99,,2013-05-20 19:21:00,
2013-05-20 14:32:00,75.0,43.0,29.72,West,280,27.0,35.0,31,-99.99,,,-99.99,,2013-05-20 19:32:00,
2013-05-20 14:41:00,75.0,43.0,29.72,West,270,23.0,36.0,31,-99.99,,,-99.99,,2013-05-20 19:41:00,
2013-05-20 14:52:00,73.0,43.0,29.72,West,260,20.0,32.0,33,-99.99,,,-99.99,,2013-05-20 19:52:00,
2013-05-20 15:01:00,73.0,43.0,29.72,West,260,20.0,32.0,33,-99.99,,,-99.99,,2013-05-20 20:01:00,
2013-05-20 15:12:00,73.0,43.0,29.72,West,270,16.0,31.0,33,-99.99,,,-99.99,,2013-05-20 20:12:00,
2013-05-20 15:21:00,72.0,43.0,29.72,West,280,24.0,32.0,35,-99.99,,,-99.99,,2013-05-20 20:21:00,
2013-05-20 15:32:00,72.0,43.0,29.72,West,280,23.0,30.0,35,-99.99,,,-99.99,,2013-05-20 20:32:00,
2013-05-20 15:42:00,73.0,45.0,29.72,West,270,23.0,31.0,35,-99.99,,,-99.99,,2013-05-20 20:42:00,
2013-05-20 15:51:00,73.0,43.0,29.72,West,260,25.0,30.0,33,-99.99,,,-99.99,,2013-05-20 20:51:00,
2013-05-20 16:01:00,73.0,43.0,29.72,West,260,25.0,30.0,33,-99.99,,,-99.99,,2013-05-20 21:01:00,
2013-05-20 16:11:00,73.0,43.0,29.71,WNW,290,24.0,33.0,33,-99.99,,,-99.99,,2013-05-20 21:11:00,
2013-05-20 16:21:00,73.0,45.0,29.71,WNW,290,23.0,31.0,35,-99.99,,,-99.99,,2013-05-20 21:21:00,
2013-05-20 16:32:00,72.0,45.0,29.71,West,280,29.0,36.0,37,-99.99,,,-99.99,,2013-05-20 21:32:00,
2013-05-20 16:43:00,72.0,45.0,29.71,West,280,24.0,36.0,37,-99.99,,,-99.99,,2013-05-20 21:43:00,
2013-05-20 16:53:00,72.0,45.0,29.71,West,280,25.0,33.0,37,-99.99,,,-99.99,,2013-05-20 21:53:00,
2013-05-20 17:02:00,72.0,45.0,29.71,West,280,25.0,33.0,37,-99.99,,,-99.99,,2013-05-20 22:02:00,
2013-05-20 17:12:00,72.0,45.0,29.71,West,270,25.0,36.0,37,-99.99,,,-99.99,,2013-05-20 22:12:00,
2013-05-20 17:23:00,70.0,45.0,29.71,West,270,23.0,36.0,40,-99.99,,,-99.99,,2013-05-20 22:23:00,
2013-05-20 17:33:00,68.0,45.0,29.71,West,280,29.0,36.0,42,-99.99,,,-99.99,,2013-05-20 22:33:00,
2013-05-20 17:42:00,70.0,45.0,29.72,West,280,25.0,36.0,40,-99.99,,,-99.99,,2013-05-20 22:42:00,
2013-05-20 17:52:00,70.0,45.0,29.72,West,280,28.0,36.0,40,-99.99,,,-99.99,,2013-05-20 22:52:00,
2013-05-20 18:02:00,70.0,45.0,29.72,West,280,28.0,36.0,40,-99.99,,,-99.99,,2013-05-20 23:02:00,
2013-05-20 18:12:00,68.0,45.0,29.72,WNW,290,24.0,33.0,42,-99.99,,,-99.99,,2013-05-20 23:12:00,
2013-05-20 18:22:00,66.0,45.0,29.73,West,270,23.0,33.0,45,-99.99,,,-99.99,,2013-05-20 23:22:00,
2013-05-20 18:32:00,64.0,45.0,29.74,West,270,25.0,36.0,48,-99.99,,,-99.99,,2013-05-20 23:32:00,
2013-05-20 18:42:00,64.0,45.0,29.74,West,280,23.0,32.0,48,-99.99,,,-99.99,,2013-05-20 23:42:00,
2013-05-20 18:52:00,64.0,45.0,29.75,West,270,20.0,31.0,48,-99.99,,,-99.99,,2013-05-20 23:52:00,
2013-05-20 19:01:00,64.0,45.0,29.75,West,270,20.0,31.0,48,-99.99,,,-99.99,,2013-05-21 00:01:00,
2013-05-20 19:11:00,64.0,45.0,29.75,West,280,18.0,30.0,48,-99.99,,,-99.99,,2013-05-21 00:11:00,
2013-05-20 19:21:00,64.0,46.0,29.75,West,280,25.0,35.0,51,-99.99,,,-99.99,,2013-05-21 00:21:00,
2013-05-20 19:32:00,63.0,46.0,29.75,West,280,24.0,32.0,55,-99.99,,,-99.99,,2013-05-21 00:32:00,
2013-05-20 19:41:00,64.0,46.0,29.75,West,280,21.0,31.0,51,-99.99,,,-99.99,,2013-05-21 00:41:00,
2013-05-20 19:52:00,63.0,46.0,29.75,West,280,18.0,27.0,55,-99.99,,,-99.99,,2013-05-21 00:52:00,
2013-05-20 20:01:00,63.0,46.0,29.75,West,280,18.0,27.0,55,-99.99,,,-99.99,,2013-05-21 01:01:00,
2013-05-20 20:11:00,61.0,46.0,29.75,West,280,25.0,32.0,59,-99.99,,,-99.99,,2013-05-21 01:11:00,
2013-05-20 20:21:00,61.0,48.0,29.75,West,270,22.0,29.0,63,-99.99,,,-99.99,,2013-05-21 01:21:00,
2013-05-20 20:32:00,59.0,48.0,29.75,West,280,23.0,28.0,67,-99.99,,,-99.99,,2013-05-21 01:32:00,
2013-05-20 20:42:00,59.0,48.0,29.75,West,270,21.0,29.0,67,-99.99,,,-99.99,,2013-05-21 01:42:00,
2013-05-20 20:52:00,59.0,48.0,29.75,West,270,18.0,28.0,67,-99.99,,,-99.99,,2013-05-21 01:52:00,
2013-05-20 21:02:00,59.0,48.0,29.75,West,270,18.0,28.0,67,-99.99,,,-99.99,,2013-05-21 02:02:00,
2013-05-20 21:11:00,57.0,48.0,29.75,West,270,18.0,24.0,71,-99.99,,,-99.99,,2013-05-21 02:11:00,
2013-05-20 21:21:00,57.0,48.0,29.75,West,270,17.0,24.0,71,-99.99,,,-99.99,,2013-05-21 02:21:00,
2013-05-20 21:32:00,57.0,48.0,29.76,West,270,18.0,25.0,71,-99.99,,,-99.99,,2013-05-21 02:32:00,
2013-05-20 21:41:00,57.0,48.0,29.76,West,270,18.0,25.0,71,-99.99,,,-99.99,,2013-05-21 02:41:00,
2013-05-20 21:52:00,57.0,48.0,29.77,West,280,17.0,24.0,71,-99.99,,,-99.99,,2013-05-21 02:52:00,
2013-05-20 22:02:00,57.0,48.0,29.77,West,280,17.0,24.0,71,-99.99,,,-99.99,,2013-05-21 03:02:00,
2013-05-20 22:11:00,57.0,50.0,29.79,West,280,15.0,23.0,76,-99.99,,,-99.99,,2013-05-21 03:11:00,
2013-05-20 22:21:00,57.0,50.0,29.79,West,280,15.0,21.0,76,-99.99,,,-99.99,,2013-05-21 03:21:00,
2013-05-20 22:33:00,57.0,50.0,29.80,West,280,16.0,23.0,76,-99.99,,,-99.99,,2013-05-21 03:33:00,
2013-05-20 22:43:00,57.0,50.0,29.80,WNW,290,17.0,24.0,76,-99.99,,,-99.99,,2013-05-21 03:43:00,
2013-05-20 22:53:00,57.0,50.0,29.80,West,280,18.0,23.0,76,-99.99,,,-99.99,,2013-05-21 03:53:00,
2013-05-20 23:03:00,57.0,50.0,29.80,West,280,18.0,23.0,76,-99.99,,,-99.99,,2013-05-21 04:03:00,
2013-05-20 23:13:00,57.0,48.0,29.81,West,280,16.0,20.0,71,-99.99,,,-99.99,,2013-05-21 04:13:00,
2013-05-20 23:23:00,57.0,48.0,29.82,West,280,13.0,-999.0,71,-99.99,,,-99.99,,2013-05-21 04:23:00,
2013-05-20 23:33:00,57.0,48.0,29.82,West,280,15.0,20.0,71,-99.99,,,-99.99,,2013-05-21 04:33:00,
2013-05-20 23:42:00,57.0,48.0,29.82,WNW,290,12.0,20.0,71,-99.99,,,-99.99,,2013-05-21 04:42:00,
2013-05-20 23:52:00,57.0,48.0,29.82,WNW,290,15.0,18.0,71,-99.99,,,-99.99,,2013-05-21 04:52:00,